Regional Weather Roundup
Issued by NWS

Home | Current Version | Previous Version | Graphics & Text | Print | Product List | Glossary On
Versions: 1 2 3 4 5 6 7 8 9 10 11 12 13 14 15 16 17 18 19 20 21 22 23 24 25 26 27 28 29 30 31 32 33 34 35 36 37 38 39 40 41 42 43 44 45 46 47 48 49 50
000
ASUS45 KBOU 190007
RWRCO

WEATHER ROUNDUP FOR COLORADO
NATIONAL WEATHER SERVICE DENVER/BOULDER CO
500 PM MST THU DEC 18 2014

NOTE: "FAIR" INDICATES FEW OR NO CLOUDS BELOW 12000 FEET WITH NO
SIGNIFICANT WEATHER AND/OR OBSTRUCTIONS TO VISIBILITY.

COZ001>005-013-030-031-190100-
...NORTHWEST COLORADO...

CITY           SKY/WX    TMP DP  RH WIND       PRES   REMARKS
CRAIG          PTCLDY    18  16  92 SW3       30.13R
HAYDEN         PTCLDY    25  21  86 E3        30.11S
MEEKER         CLOUDY    21  18  88 CALM      30.12R
MOUNT WERNER   NOT AVBL
STEAMBOAT SPGS MOCLDY    25  22  88 CALM      30.11S
WALDEN         CLOUDY    12   9  85 CALM      30.07R
$$

COZ006>008-011-190100-
...WEST CENTRAL VALLEYS...

CITY           SKY/WX    TMP DP  RH WIND       PRES   REMARKS
GRAND JUNCTION CLOUDY    36  31  82 NW8       30.14R
MONTROSE       CLOUDY    35  31  85 W5        30.14R WCI  31
EAGLE          MOCLDY    32  28  86 W7        30.12R WCI  26
RIFLE          FLURRIES  35  29  78 W6        30.12R WCI  30
DELTA          MOCLDY    38  33  81 N5        30.13R
NUCLA          MOCLDY    32  32 100 CALM      30.17R
$$

COZ017>023-064>068-190100-
...SOUTHWEST COLORADO...

CITY           SKY/WX    TMP DP  RH WIND       PRES   REMARKS
DURANGO        PTCLDY    32  26  78 SW5       30.09R WCI  27
CORTEZ         CLOUDY    36  30  79 NE9       30.12R
PAGOSA SPRINGS PTCLDY    29  22  76 CALM      30.09R
TELLURIDE      FLURRIES  23  21  91 W6        30.10S WCI  16
WOLF CREEK PAS FLURRIES  10  10 100 MISG      30.05R
$$

COZ009-010-012-014-032>034-037-058>063-190100-
...CENTRAL COLORADO...

CITY           SKY/WX    TMP DP  RH WIND       PRES   REMARKS
ASPEN          CLOUDY    29  21  72 CALM      30.08R HAZE
BUENA VISTA    LGT SNOW  30  25  81 E5        30.05R WCI  25
COPPER MTN     LGT SNOW  18  10  73 W12       30.05R WCI   5
BERTHOUD PASS  CLOUDY     9   3  78 MISG      30.04R
COTTONWOOD PAS CLOUDY    28  19  69 W6        30.04R WCI  22
GUNNISON       CLOUDY    27  21  80 N8        30.10R WCI  18
KREMMLING      CLOUDY    21  18  86 CALM      30.12R
LEADVILLE      CLOUDY    19  12  74 N7        30.04R WCI  10
MONARCH PASS   CLOUDY    14  12  92 MISG      30.14R
SALIDA         MOCLDY    34  19  55 SW6G16    30.11R WCI  29
SUNLIGHT       LGT SNOW N/A N/A N/A CALM      30.09S
WILKERSON PASS MOCLDY    19  10  68 W3        30.06R
$$

COZ069>075-190100-
...SAN LUIS VALLEY/SANGRE DE CRISTO MOUNTAINS...

CITY           SKY/WX    TMP DP  RH WIND       PRES   REMARKS
ALAMOSA        MOCLDY    26  21  81 SE6       30.06S WCI  19
LA VETA PASS   CLOUDY    16  14  93 MISG      30.02S FOG
SAGUACHE       CLOUDY    30  23  74 CALM      30.08R
$$

COZ035-036-038>040-190100-
...NORTHERN COLORADO FRONT RANGE...

CITY           SKY/WX    TMP DP  RH WIND       PRES   REMARKS
DENVER INTL AP PTCLDY    32  27  81 NE8       30.03R WCI  25
DMNS CITY PARK   N/A     38  26  61 N3        30.04R
AURORA         PTCLDY    34  27  74 N8        30.04R WCI  27
FRONT RANGE AP NOT AVBL
ERIE MUNI ARPT   N/A     33  25  70 CALM      30.04R
BOULDER MUN AP CLOUDY    37  25  60 CALM      30.03S
CENTENNIAL     MOCLDY    36  27  69 N7        30.03R
BROOMFIELD     MOCLDY    36  27  69 N5        30.04R
FORT COLLINS   CLEAR     37  23  56 SE6       30.05R
LONGMONT       CLOUDY    38  26  62 CALM      30.06R
$$

COZ041-046-047-076>085-087-088-190100-
...PIKES PEAK/PALMER DIVIDE AND SOUTHERN FOOTHILLS...

CITY           SKY/WX    TMP DP  RH WIND       PRES   REMARKS
COLO. SPRINGS  MOCLDY    37  26  64 S10       30.05R
A. F. ACADEMY  CLOUDY    37  26  64 SE8       30.03R
ELLICOTT       NOT AVBL
FALCON         NOT AVBL
FORT CARSON    CLOUDY    36  27  68 SE7       30.04R
LIMON          CLEAR     30  21  69 S8        30.04R WCI  22
MONUMENT HILL  CLEAR     30  25  80 S9        30.02R WCI  22
TRINIDAD       MOCLDY    38  25  59 NE3       30.01R
$$

COZ042>045-048>051-090-091-190100-
...NORTHEAST COLORADO...

CITY           SKY/WX    TMP DP  RH WIND       PRES   REMARKS
GREELEY ARPT   PTCLDY    37  21  52 SE5       30.03R
AKRON          PTCLDY    30  24  78 S5        30.04R WCI  25
BURLINGTON     CLEAR     37  22  54 E3        30.07R
WRAY           MOCLDY    27  25  94 W5        30.07S FOG     WCI  21
STERLING       PTCLDY    27  23  86 SW5       30.06R WCI  21
HOLYOKE        NOT AVBL
FORT MORGAN    PTCLDY    33  21  61 CALM      30.05R
$$

COZ086-089-092>099-190100-
...SOUTHEAST COLORADO...

CITY           SKY/WX    TMP DP  RH WIND       PRES   REMARKS
PUEBLO         CLOUDY    39  29  67 E7        30.04R
LA JUNTA       PTCLDY    34  29  82 E7        30.05R WCI  28
LAMAR          PTCLDY    34  28  79 E7        30.06R WCI  28
SPRINGFIELD      N/A     29  26  89 SE7       30.06R WCI  22
$$



USA.gov is the U.S. government's official web portal to all federal, state and local government web resources and services.